Estación de Azapa medio
Ultimos registro cada 15 minutos 65
| N° | Estación | Fecha / Hora | Temperatura | Humedad | Lluvia | Velocidad | Dirección | Radiación | Presion |
| 65 | Azapa medio | 10-05-2026 16:00 | 24,6 | 49,1 | 0 | 1,4 | 315 | 304 | 965 |
| 64 | Azapa medio | 10-05-2026 15:45 | 24,6 | 47,5 | 0 | 0,6 | 316 | 335 | 965 |
| 63 | Azapa medio | 10-05-2026 15:30 | 24,6 | 48,6 | 0 | 1,4 | 298 | 364 | 965 |
| 62 | Azapa medio | 10-05-2026 15:15 | 24,8 | 47,8 | 0 | 1,1 | 303 | 393 | 965 |
| 61 | Azapa medio | 10-05-2026 15:00 | 24,7 | 48,5 | 0 | 1 | 303 | 419 | 966 |
| 60 | Azapa medio | 10-05-2026 14:45 | 24,6 | 49,1 | 0 | 0,9 | 305 | 443 | 966 |
| 59 | Azapa medio | 10-05-2026 14:30 | 24,5 | 48,9 | 0 | 1,2 | 314 | 462 | 966 |
| 58 | Azapa medio | 10-05-2026 14:15 | 24,5 | 47,4 | 0 | 1,1 | 308 | 480 | 966 |
| 57 | Azapa medio | 10-05-2026 14:00 | 24,2 | 49,4 | 0 | 1,1 | 312 | 495 | 966 |
| 56 | Azapa medio | 10-05-2026 13:45 | 23,8 | 50 | 0 | 1,5 | 309 | 507 | 966 |
| 55 | Azapa medio | 10-05-2026 13:30 | 23,9 | 50,4 | 0 | 1,7 | 298 | 517 | 967 |
| 54 | Azapa medio | 10-05-2026 13:15 | 23,8 | 51,7 | 0 | 1,8 | 292 | 523 | 967 |
| 53 | Azapa medio | 10-05-2026 13:00 | 24,3 | 50,4 | 0 | 1,6 | 307 | 528 | 967 |
| 52 | Azapa medio | 10-05-2026 12:45 | 24,5 | 50,5 | 0 | 1,7 | 305 | 529 | 967 |
| 51 | Azapa medio | 10-05-2026 12:30 | 24,8 | 48,5 | 0 | 1,3 | 308 | 528 | 967 |
| 50 | Azapa medio | 10-05-2026 12:15 | 24,5 | 48,4 | 0 | 1 | 313 | 521 | 967 |
| 49 | Azapa medio | 10-05-2026 12:00 | 23,8 | 49,5 | 0 | 0,9 | 306 | 513 | 967 |
| 48 | Azapa medio | 10-05-2026 11:45 | 23,3 | 50,8 | 0 | 0,7 | 312 | 500 | 968 |
| 47 | Azapa medio | 10-05-2026 11:30 | 22,9 | 52,4 | 0 | 0,8 | 317 | 485 | 968 |
| 46 | Azapa medio | 10-05-2026 11:15 | 22,6 | 53 | 0 | 0,7 | 317 | 466 | 968 |
| 45 | Azapa medio | 10-05-2026 11:00 | 22,4 | 52,2 | 0 | 0,8 | 317 | 444 | 968 |
| 44 | Azapa medio | 10-05-2026 10:45 | 21,8 | 55,3 | 0 | 0,5 | 317 | 300 | 968 |
| 43 | Azapa medio | 10-05-2026 10:30 | 21,1 | 57,3 | 0 | 0,5 | 317 | 303 | 968 |
| 42 | Azapa medio | 10-05-2026 10:15 | 20,3 | 58 | 0 | 0,4 | 7 | 283 | 968 |
| 41 | Azapa medio | 10-05-2026 10:00 | 19,8 | 61,2 | 0 | 0,5 | 21 | 51 | 968 |
| 40 | Azapa medio | 10-05-2026 09:45 | 19,2 | 63,5 | 0 | 1 | 21 | 184 | 968 |
| 39 | Azapa medio | 10-05-2026 09:30 | 18,5 | 67,2 | 0 | 0,7 | 22 | 211 | 968 |
| 38 | Azapa medio | 10-05-2026 09:15 | 17,5 | 69,2 | 0 | 0,2 | 26 | 233 | 968 |
| 37 | Azapa medio | 10-05-2026 09:00 | 16,4 | 73,6 | 0 | 0,2 | 23 | 182 | 968 |
| 36 | Azapa medio | 10-05-2026 08:45 | 15,7 | 77,4 | 0 | 0,3 | 22 | 56 | 968 |
| 35 | Azapa medio | 10-05-2026 08:30 | 15,6 | 77,5 | 0 | 0,4 | 22 | 56 | 968 |
| 34 | Azapa medio | 10-05-2026 08:15 | 15,4 | 78,3 | 0 | 0,2 | 21 | 39 | 968 |
| 33 | Azapa medio | 10-05-2026 08:00 | 15,3 | 78,8 | 0 | 0,1 | 21 | 24 | 968 |
| 32 | Azapa medio | 10-05-2026 07:45 | 15,1 | 79,1 | 0 | 0,8 | 21 | 14 | 968 |
| 31 | Azapa medio | 10-05-2026 07:30 | 15,1 | 79,8 | 0 | 0,3 | 21 | 5 | 968 |
| 30 | Azapa medio | 10-05-2026 07:15 | 15,1 | 79,8 | 0 | 0,3 | 21 | 1 | 968 |
| 29 | Azapa medio | 10-05-2026 07:00 | 15,2 | 80,1 | 0 | 0,2 | 21 | 0 | 968 |
| 28 | Azapa medio | 10-05-2026 06:45 | 15,2 | 80 | 0 | 0 | 21 | 0 | 968 |
| 27 | Azapa medio | 10-05-2026 06:30 | 15,2 | 80,2 | 0 | 0 | 22 | 0 | 968 |
| 26 | Azapa medio | 10-05-2026 06:15 | 15,2 | 80 | 0 | 0,1 | 22 | 0 | 967 |
| 25 | Azapa medio | 10-05-2026 06:00 | 15,2 | 79,8 | 0 | 0 | 22 | 0 | 967 |
| 24 | Azapa medio | 10-05-2026 05:45 | 15,2 | 79,7 | 0 | 0,3 | 22 | 0 | 967 |
| 23 | Azapa medio | 10-05-2026 05:30 | 15,3 | 79,8 | 0 | 0,2 | 22 | 0 | 968 |
| 22 | Azapa medio | 10-05-2026 05:15 | 15,2 | 79,7 | 0 | 0,5 | 27 | 0 | 968 |
| 21 | Azapa medio | 10-05-2026 05:00 | 15,2 | 79,5 | 0 | 0,5 | 22 | 0 | 967 |
| 20 | Azapa medio | 10-05-2026 04:45 | 15,3 | 79,6 | 0 | 0,9 | 22 | 0 | 968 |
| 19 | Azapa medio | 10-05-2026 04:30 | 15,4 | 79,7 | 0 | 0,6 | 26 | 0 | 967 |
| 18 | Azapa medio | 10-05-2026 04:15 | 15,4 | 79,8 | 0 | 0,4 | 41 | 0 | 967 |
| 17 | Azapa medio | 10-05-2026 04:00 | 15,4 | 80,7 | 0 | 0,6 | 24 | 0 | 967 |
| 16 | Azapa medio | 10-05-2026 03:45 | 15,3 | 81,5 | 0 | 0,1 | 22 | 0 | 967 |
| 15 | Azapa medio | 10-05-2026 03:30 | 15,2 | 82,2 | 0 | 0 | 22 | 0 | 967 |
| 14 | Azapa medio | 10-05-2026 03:15 | 15 | 82,7 | 0 | 0 | 0 | 0 | 967 |
| 13 | Azapa medio | 10-05-2026 03:00 | 14,7 | 83 | 0 | 0,1 | 21 | 0 | 967 |
| 12 | Azapa medio | 10-05-2026 02:45 | 14,4 | 83,2 | 0 | 0 | 20 | 0 | 967 |
| 11 | Azapa medio | 10-05-2026 02:30 | 14,2 | 83,1 | 0 | 0,3 | 20 | 0 | 967 |
| 10 | Azapa medio | 10-05-2026 02:15 | 13,8 | 83,5 | 0 | 0,6 | 20 | 0 | 967 |
| 9 | Azapa medio | 10-05-2026 02:00 | 13,5 | 84 | 0 | 0,6 | 20 | 0 | 967 |
| 8 | Azapa medio | 10-05-2026 01:45 | 13,2 | 84,3 | 0 | 0,4 | 20 | 0 | 968 |
| 7 | Azapa medio | 10-05-2026 01:30 | 13 | 84,6 | 0 | 0,3 | 20 | 0 | 968 |
| 6 | Azapa medio | 10-05-2026 01:15 | 12,8 | 84,9 | 0 | 0,4 | 20 | 0 | 968 |
| 5 | Azapa medio | 10-05-2026 01:00 | 12,6 | 84,9 | 0 | 0,1 | 20 | 0 | 968 |
| 4 | Azapa medio | 10-05-2026 00:45 | 12,7 | 84,8 | 0 | 0,2 | 20 | 0 | 968 |
| 3 | Azapa medio | 10-05-2026 00:30 | 12,7 | 84,6 | 0 | 0,4 | 20 | 0 | 968 |
| 2 | Azapa medio | 10-05-2026 00:15 | 12,8 | 84,9 | 0 | 0,4 | 20 | 0 | 968 |
| 1 | Azapa medio | 10-05-2026 00:00 | 12,7 | 85 | 0 | 0,5 | 20 | 0 | 968 |